Вернуться в каталог

THOR ABLESTAR R/B

АктивенLEO
NORAD 47·ROCKET BODY·🇺🇸 United States

Запущен Jun 22, 1960 с Cape Canaveral Space Force Station

Loading…

Ближайшие Пролёты (ближайшие 24 часа)

TLE

СвежийSource: Space-Track

Эпоха: Sep 7, 2026, 05:55 UTC

1 00047U 60007C   26250.24659290  .00000287  00000-0  86240-4 0  9997
2 00047  66.6648 186.0295 0210614  77.0911 285.3627 14.45380365462665

Отслеживайте THOR ABLESTAR R/B в реальном времени с AllMySat

Download on the App Store